Regional Weather Roundup
Issued by NWS Little Rock, AR

Home | Current Version | Previous Version | Graphics & Text | Print | Product List | Glossary On
Versions: 1 2 3 4 5 6 7 8 9 10 11 12 13 14 15 16 17 18 19 20 21 22 23 24 25 26 27 28
000
ASUS44 KLZK 201905
RWRLZK

WEATHER ROUNDUP FOR ARKANSAS
NATIONAL WEATHER SERVICE LITTLE ROCK AR
200 PM CDT SUN APR 20 2014

NOTE: "FAIR" INDICATES FEW OR NO CLOUDS BELOW 12,000 FEET WITH NO
SIGNIFICANT WEATHER AND/OR OBSTRUCTIONS TO VISIBILITY.

ARZ001-003-010-029-202000-
NORTHWEST ARKANSAS

CITY           SKY/WX    TMP DP  RH WIND       PRES   REMARKS
FAYETTEVILLE   CLOUDY    74  54  49 SW10      30.15F
FORT SMITH     PTSUNNY   78  53  41 SW3       30.12F
HARRISON       PTSUNNY   77  47  34 SE9       30.14F
BENTONVILLE    CLOUDY    73  52  46 SW8       30.15F
ROGERS         CLOUDY    73  51  46 SW9       30.15F
SILOAM SPGS    CLOUDY    75  52  43 S16       30.15F
HIGHFILL       CLOUDY    73  52  47 SW8G16    30.13F
SPRINGDALE     CLOUDY    73  52  46 SW12      30.17S
$$

ARZ004-005-016-202000-
NORTH CENTRAL ARKANSAS

CITY           SKY/WX    TMP DP  RH WIND       PRES   REMARKS
BATESVILLE     SUNNY     79  48  34 E9        30.12F
FLIPPIN        SUNNY     79  48  34 CALM      30.12F
MTN HOME       SUNNY     80  45  28 S9        30.12F
$$

ARZ040-041-202000-
WEST CENTRAL ARKANSAS

CITY           SKY/WX    TMP DP  RH WIND       PRES   REMARKS
MENA           CLOUDY    77  50  38 S6        30.15F
MOUNT IDA      PTSUNNY   75  52  44 VRB6      30.12F
$$

ARZ009-017-025-026-028-202000-
NORTHEAST ARKANSAS

CITY           SKY/WX    TMP DP  RH WIND       PRES   REMARKS
CORNING          N/A     77  43  29 SW5       30.16F
JONESBORO      MOSUNNY   79  44  28 SW13      30.14F
NEWPORT        SUNNY     78  43  28 VRB3      30.15F
WALNUT RIDGE   MOSUNNY   77  48  36 SE5       30.14F
BLYTHEVILLE    MOSUNNY   77  45  32 MISG      30.16F
$$

ARZ022-023-033-042-044-202000-
CENTRAL ARKANSAS

CITY           SKY/WX    TMP DP  RH WIND       PRES   REMARKS
LITTLE ROCK    PTSUNNY   79  50  36 VRB6      30.14F
N LITTLE ROCK  PTSUNNY   76  53  44 S8        30.14F
JACKSONVILLE   MOSUNNY   79  52  38 S12       30.14F
SEARCY         SUNNY     79  51  37 S9        30.15F
HOT SPRINGS    PTSUNNY   79  50  36 S5        30.14F
RUSSELLVILLE   CLOUDY    78  52  40 CALM      30.13F
CLINTON        FAIR      77  50  38 SE3       30.13F
$$

ARZ036-202000-
EAST ARKANSAS

CITY           SKY/WX    TMP DP  RH WIND       PRES   REMARKS
WEST MEMPHIS   MOSUNNY   78  49  35 S7        30.15F
$$

ARZ050-053-066-070-073-202000-
SOUTHWEST ARKANSAS

CITY           SKY/WX    TMP DP  RH WIND       PRES   REMARKS
ARKADELPHIA    FAIR      80  54  40 CALM      30.14F
CAMDEN         MOSUNNY   81  48  32 MISG      30.13F
TEXARKANA      MOSUNNY   78  53  41 S8        30.14F
EL DORADO      PTSUNNY   78  52  40 SE8       30.14F
DE QUEEN       CLOUDY    76  55  48 S7        30.12F
$$

ARZ056-057-069-202000-
SOUTHEAST ARKANSAS

CITY           SKY/WX    TMP DP  RH WIND       PRES   REMARKS
PINE BLUFF     MOSUNNY   79  52  38 CALM      30.14F
STUTTGART      SUNNY     79  48  34 SE8       30.15F
MONTICELLO     PTSUNNY   81  46  29 S5        30.13F

$$





USA.gov is the U.S. government's official web portal to all federal, state and local government web resources and services.